Regional Weather Roundup
Issued by NWS

Home | Current Version | Previous Version | Text Only | Print | Product List | Glossary On
Versions: 1 2 3 4 5 6 7 8 9 10 11 12 13 14 15 16 17 18 19 20 21 22 23 24 25 26 27 28 29 30 31 32 33 34 35 36 37 38 39 40 41 42 43 44 45 46 47 48 49 50
000
ASUS45 KABQ 311510
RWRNM
WEATHER ROUNDUP FOR NEW MEXICO
NATIONAL WEATHER SERVICE ALBUQUERQUE NM
900 AM MDT FRI OCT 31 2014

NOTE: "FAIR" MEANS FEW OR NO CLOUDS BELOW 12,000 FEET AGL WITH NO
       SIGNIFICANT WEATHER OR OBSTRUCTIONS TO VISION.

      THIS PRODUCT IS RELEASED AS TWO VERSIONS.  ONE VERSION NEAR
      THE TOP OF THE HOUR CONTAINING PRELIMINARY DATA FROM ALBUQUERQUE
      AND OTHER STATIONS.  A FINAL VERSION WITH ADDITIONAL DATA IS
      ISSUED ABOUT 10 MINUTES AFTER THE HOUR.

NMZ501-503-504-510>518-311600-
NORTHWEST PLATEAU/NORTHCENTRAL MOUNTAINS

CITY           SKY/WX    TMP DP  RH WIND       PRES   REMARKS
FARMINGTON     SUNNY     45  23  42 E10       30.30R
LOS ALAMOS     MOSUNNY   45  24  43 SW12      30.47R
SANTA FE       MOSUNNY   50  24  36 SE13      30.43R
TAOS           MOSUNNY   39  19  45 CALM      30.46S
ANGEL FIRE     FAIR      29  21  74 CALM      30.50R

$$
NMZ402-403-502-505>509-311600-
WESTCENTRAL MOUNTAINS/SOUTHWEST MOUNTAINS

CITY           SKY/WX    TMP DP  RH WIND       PRES   REMARKS
GALLUP         PTSUNNY   47  23  38 CALM      30.31R
GRANTS         SUNNY     50  23  34 SE15G28   30.38R
SILVER CITY    PTSUNNY   55  34  44 SE8       30.36

$$
NMZ407-409-411-412-311600-
SOUTHERN DESERTS

CITY           SKY/WX    TMP DP  RH WIND       PRES   REMARKS
LORDSBURG      FAIR      61  43  51 SE26G33   30.24R
DEMING         MOSUNNY   57  46  66 E16       30.30R
LAS CRUCES     MOSUNNY   60  42  52 E16G22    30.33R
HOLLOMAN AFB   SUNNY     53  40  59 NE1       30.34R
T OR C         SUNNY     55  31  39 N7        30.34R

$$
NMZ519>523-311600-
CENTRAL VALLEYS/CENTRAL HIGHLANDS

CITY           SKY/WX    TMP DP  RH WIND       PRES   REMARKS
ALBUQUERQUE    MOSUNNY   54  27  35 E18       30.37R
DOUBLE EAGLE   MOSUNNY   50  27  40 N9        30.40R
MORIARTY ARPT  FAIR      40  24  52 NW3       30.47R
CLINES CORNERS MOSUNNY   42  24  49 E12       30.45R
BELEN          FAIR      49  24  36 NW7       30.38R
SOCORRO        FAIR      55  32  41 CALM      30.36R

$$
NMZ524>526-539-540-311600-
SOUTHCENTRAL MOUNTAINS

CITY           SKY/WX    TMP DP  RH WIND       PRES   REMARKS
RUIDOSO        MOSUNNY   46  32  57 SE9       30.50R

$$
NMZ527>531-311600-
NORTHEAST HIGHLANDS/NORTHEAST PLAINS

CITY           SKY/WX    TMP DP  RH WIND       PRES   REMARKS
LAS VEGAS      SUNNY     44  24  45 S8        30.47S
RATON          SUNNY     41  25  53 SE5       30.45R
CLAYTON        SUNNY     43  29  57 SE9       30.47R

$$
NMZ532>537-311600-
EASTCENTRAL PLAINS

CITY           SKY/WX    TMP DP  RH WIND       PRES   REMARKS
TUCUMCARI      SUNNY     46  29  51 E3        30.47R
CANNON AFB     SUNNY     41  28  60 CALM      30.40R
CLOVIS AIRPORT SUNNY     48  28  46 E9        30.49R

$$
NMZ028-029-538-311600-
SOUTHEAST PLAINS

CITY           SKY/WX    TMP DP  RH WIND       PRES   REMARKS
ROSWELL        SUNNY     53  34  48 CALM      30.44R
CARLSBAD       PTSUNNY   56  38  50 N5        30.42R
HOBBS          SUNNY     54  32  43 NE13      30.43R


$$



USA.gov is the U.S. government's official web portal to all federal, state and local government web resources and services.